When you browse on this site, cookies collect data to enhance your experience and personalize the content and advertising you see.
Visit our Privacy Policy to learn more. By continuing to use the site, you agree to this use of cookies and data.
  • In Hungary
  • List of Countries
  • For 7 days
  • Water Temperature
  • Weather Map
  • News
  • Weather Widgets
  • user-avatar
    Login

    Hourly Weather Acarau

    Today, 13 November, Wednesday

    Time Temperature Precipitation Wind Pressure Humidity
    00:00 +27°C° 0 mm 7 mps 755 mmHg 82%
    01:00 +27°C° 0 mm 7 mps 755 mmHg 82%
    02:00 +26°C° 0 mm 7 mps 755 mmHg 83%
    03:00 +26°C° 0 mm 7 mps 755 mmHg 83%
    04:00 +27°C° 0 mm 7 mps 755 mmHg 78%
    05:00 +28°C° 0 mm 7 mps 756 mmHg 72%
    06:00 +28°C° 0 mm 7 mps 756 mmHg 66%
    07:00 +30°C° 0 mm 7 mps 757 mmHg 60%
    08:00 +33°C° 0 mm 7 mps 757 mmHg 53%
    09:00 +33°C° 0 mm 6 mps 758 mmHg 54%
    10:00 +35°C° 0 mm 6 mps 757 mmHg 48%
    11:00 +36°C° 0 mm 7 mps 757 mmHg 42%
    12:00 +39°C° 0 mm 7 mps 756 mmHg 36%
    13:00 +38°C° 0 mm 8 mps 755 mmHg 40%
    14:00 +37°C° 0 mm 8 mps 755 mmHg 43%
    15:00 +35°C° 0 mm 9 mps 754 mmHg 47%
    16:00 +33°C° 0 mm 8 mps 754 mmHg 56%
    17:00 +31°C° 0 mm 8 mps 754 mmHg 65%
    18:00 +28°C° 0 mm 8 mps 755 mmHg 75%
    19:00 +28°C° 0 mm 7 mps 755 mmHg 76%
    20:00 +27°C° 0 mm 7 mps 756 mmHg 77%
    21:00 +27°C° 0 mm 6 mps 757 mmHg 78%
    22:00 +27°C° 0 mm 6 mps 756 mmHg 80%
    23:00 +26°C° 0 mm 6 mps 756 mmHg 82%

    Tomorrow, 14 November, Thursday

    Time Temperature Precipitation Wind Pressure Humidity
    00:00 +26°C° 0 mm 5 mps 756 mmHg 84%
    01:00 +27°C° 0 mm 6 mps 756 mmHg 80%
    02:00 +27°C° 0 mm 7 mps 756 mmHg 76%
    03:00 +28°C° 0 mm 7 mps 756 mmHg 72%
    04:00 +28°C° 0.1 mm 7 mps 756 mmHg 72%
    05:00 +28°C° 0.1 mm 6 mps 757 mmHg 71%
    06:00 +28°C° 0.1 mm 6 mps 757 mmHg 71%
    07:00 +29°C° 0.1 mm 6 mps 757 mmHg 67%
    08:00 +30°C° 0.1 mm 6 mps 758 mmHg 63%
    09:00 +32°C° 0.1 mm 7 mps 758 mmHg 58%
    10:00 +34°C° 0 mm 7 mps 757 mmHg 51%
    11:00 +36°C° 0 mm 7 mps 757 mmHg 44%
    12:00 +39°C° 0 mm 8 mps 756 mmHg 37%
    13:00 +38°C° 0 mm 8 mps 756 mmHg 39%
    14:00 +38°C° 0 mm 8 mps 755 mmHg 42%
    15:00 +37°C° 0 mm 8 mps 754 mmHg 45%
    16:00 +34°C° 0 mm 8 mps 754 mmHg 53%
    17:00 +32°C° 0 mm 8 mps 755 mmHg 61%
    18:00 +29°C° 0 mm 8 mps 755 mmHg 70%
    19:00 +28°C° 0 mm 8 mps 755 mmHg 74%
    20:00 +28°C° 0 mm 7 mps 756 mmHg 78%
    21:00 +27°C° 0 mm 7 mps 757 mmHg 83%
    22:00 +27°C° 0 mm 7 mps 756 mmHg 83%
    23:00 +27°C° 0 mm 6 mps 756 mmHg 83%

    Day after tomorrow, 15 November, Friday

    Time Temperature Precipitation Wind Pressure Humidity
    00:00 +26°C° 0 mm 6 mps 755 mmHg 83%
    01:00 +27°C° 0 mm 6 mps 755 mmHg 82%
    02:00 +27°C° 0 mm 6 mps 755 mmHg 81%
    03:00 +28°C° 0 mm 6 mps 754 mmHg 80%
    04:00 +28°C° 0.1 mm 6 mps 755 mmHg 78%
    05:00 +28°C° 0.1 mm 6 mps 755 mmHg 75%
    06:00 +28°C° 0.1 mm 6 mps 756 mmHg 73%
    07:00 +29°C° 0.1 mm 6 mps 756 mmHg 70%
    08:00 +30°C° 0.1 mm 6 mps 757 mmHg 67%
    09:00 +30°C° 0.1 mm 6 mps 757 mmHg 65%
    10:00 +33°C° 0 mm 7 mps 757 mmHg 57%
    11:00 +35°C° 0 mm 7 mps 756 mmHg 49%
    12:00 +38°C° 0 mm 8 mps 756 mmHg 41%
    13:00 +37°C° 0 mm 8 mps 755 mmHg 42%
    14:00 +37°C° 0 mm 8 mps 754 mmHg 44%
    15:00 +35°C° 0 mm 8 mps 753 mmHg 46%
    16:00 +33°C° 0 mm 8 mps 754 mmHg 54%
    17:00 +31°C° 0 mm 8 mps 754 mmHg 61%
    18:00 +29°C° 0 mm 7 mps 754 mmHg 69%
    19:00 +28°C° 0 mm 7 mps 754 mmHg 71%
    20:00 +28°C° 0 mm 7 mps 755 mmHg 74%
    21:00 +28°C° 0 mm 6 mps 755 mmHg 77%
    22:00 +28°C° 0 mm 6 mps 755 mmHg 78%
    23:00 +28°C° 0 mm 6 mps 755 mmHg 80%

    16 November, Saturday

    Time Temperature Precipitation Wind Pressure Humidity
    00:00 +28°C° 0 mm 6 mps 754 mmHg 82%
    01:00 +28°C° 0.1 mm 5 mps 754 mmHg 82%
    02:00 +27°C° 0.1 mm 5 mps 754 mmHg 83%
    03:00 +27°C° 0.1 mm 5 mps 753 mmHg 83%
    04:00 +28°C° 0.1 mm 5 mps 754 mmHg 80%
    05:00 +28°C° 0.1 mm 5 mps 754 mmHg 77%
    06:00 +28°C° 0.1 mm 5 mps 754 mmHg 74%
    07:00 +29°C° 0 mm 5 mps 755 mmHg 69%
    08:00 +30°C° 0 mm 6 mps 755 mmHg 63%
    09:00 +32°C° 0 mm 6 mps 756 mmHg 58%
    10:00 +34°C° 0 mm 7 mps 755 mmHg 51%
    11:00 +36°C° 0 mm 7 mps 755 mmHg 44%
    12:00 +39°C° 0 mm 7 mps 754 mmHg 37%
    13:00 +38°C° 0 mm 7 mps 754 mmHg 39%
    14:00 +37°C° 0 mm 8 mps 753 mmHg 42%
    15:00 +35°C° 0 mm 8 mps 753 mmHg 44%
    16:00 +33°C° 0 mm 8 mps 753 mmHg 54%
    17:00 +31°C° 0 mm 8 mps 753 mmHg 63%
    18:00 +28°C° 0 mm 8 mps 753 mmHg 73%
    19:00 +28°C° 0 mm 7 mps 754 mmHg 74%
    20:00 +28°C° 0 mm 7 mps 754 mmHg 75%
    21:00 +27°C° 0 mm 7 mps 755 mmHg 77%
    22:00 +27°C° 0 mm 6 mps 754 mmHg 79%
    23:00 +27°C° 0 mm 6 mps 754 mmHg 81%

    17 November, Sunday

    Time Temperature Precipitation Wind Pressure Humidity
    00:00 +27°C° 0 mm 5 mps 754 mmHg 84%
    01:00 +26°C° 0 mm 5 mps 753 mmHg 85%
    02:00 +26°C° 0 mm 5 mps 753 mmHg 86%
    03:00 +26°C° 0 mm 5 mps 753 mmHg 87%
    04:00 +27°C° 0 mm 5 mps 753 mmHg 84%
    05:00 +27°C° 0 mm 5 mps 754 mmHg 82%
    06:00 +27°C° 0 mm 4 mps 755 mmHg 80%
    07:00 +29°C° 0 mm 5 mps 755 mmHg 70%
    08:00 +32°C° 0 mm 6 mps 755 mmHg 60%
    09:00 +35°C° 0 mm 6 mps 756 mmHg 50%
    10:00 +36°C° 0 mm 7 mps 755 mmHg 46%
    11:00 +38°C° 0 mm 7 mps 755 mmHg 42%
    12:00 +39°C° 0 mm 7 mps 755 mmHg 39%
    13:00 +38°C° 0 mm 7 mps 754 mmHg 41%
    14:00 +36°C° 0 mm 7 mps 753 mmHg 43%
    15:00 +35°C° 0 mm 7 mps 753 mmHg 45%
    16:00 +34°C° 0 mm 7 mps 753 mmHg 53%
    17:00 +32°C° 0 mm 6 mps 753 mmHg 62%
    18:00 +29°C° 0 mm 6 mps 754 mmHg 70%
    19:00 +28°C° 0 mm 6 mps 754 mmHg 75%
    20:00 +27°C° 0 mm 5 mps 754 mmHg 80%
    21:00 +27°C° 0 mm 5 mps 755 mmHg 85%
    22:00 +27°C° 0 mm 5 mps 755 mmHg 86%
    23:00 +27°C° 0 mm 5 mps 754 mmHg 86%

    18 November, Monday

    Time Temperature Precipitation Wind Pressure Humidity
    00:00 +27°C° 0 mm 5 mps 754 mmHg 87%
    01:00 +26°C° 0 mm 5 mps 754 mmHg 89%
    02:00 +26°C° 0 mm 4 mps 754 mmHg 91%
    03:00 +26°C° 0 mm 4 mps 754 mmHg 92%
    04:00 +26°C° 0.1 mm 4 mps 754 mmHg 92%
    05:00 +26°C° 0.1 mm 4 mps 755 mmHg 92%
    06:00 +26°C° 0.1 mm 4 mps 755 mmHg 91%
    07:00 +29°C° 0.1 mm 5 mps 756 mmHg 77%
    08:00 +33°C° 0.1 mm 5 mps 756 mmHg 64%
    09:00 +36°C° 0.1 mm 6 mps 757 mmHg 50%
    10:00 +38°C° 0 mm 6 mps 756 mmHg 45%
    11:00 +39°C° 0 mm 7 mps 756 mmHg 41%
    12:00 +40°C° 0 mm 7 mps 755 mmHg 37%
    13:00 +39°C° 0 mm 7 mps 754 mmHg 39%
    14:00 +38°C° 0 mm 7 mps 754 mmHg 42%
    15:00 +38°C° 0 mm 8 mps 753 mmHg 44%
    16:00 +34°C° 0 mm 7 mps 754 mmHg 54%
    17:00 +32°C° 0 mm 7 mps 754 mmHg 65%
    18:00 +29°C° 0 mm 7 mps 754 mmHg 75%
    19:00 +29°C° 0 mm 7 mps 754 mmHg 76%
    20:00 +28°C° 0 mm 6 mps 755 mmHg 78%
    21:00 +28°C° 0 mm 6 mps 755 mmHg 79%
    22:00 +28°C° 0 mm 6 mps 755 mmHg 80%
    23:00 +28°C° 0 mm 6 mps 755 mmHg 81%
    Show more